K1UTS Weather Reports


time (UTC)temp
C
wind
direction
speed
KPH
gust
KPH
rain 1hr
cm
rain 24hr
cm
rain mn
cm
humidity
%
barometer
mb
20260505013057 16 301 0.0 11.3 0.00 0.00 0.00 49 1006.8
20260505011558 16 191 4.8 12.9 0.00 0.00 0.00 48 1006.5
20260505010158 16 196 4.8 14.5 0.00 0.00 0.00 47 1006.3
20260505004555 17 282 3.2 9.7 0.00 0.00 0.00 46 1006.1
20260505003059 17 198 3.2 16.1 0.00 0.00 0.00 45 1005.7
20260505001557 17 142 4.8 17.7 0.00 0.00 0.00 43 1005.2
20260505000058 18 134 1.6 16.1 0.00 0.00 0.00 42 1005.0
20260504234553 18 278 3.2 11.3 0.00 0.00 0.00 41 1004.6
20260504233054 19 223 6.4 12.9 0.00 0.00 0.00 38 1004.4
20260504231553 19 82 3.2 11.3 0.00 0.00 0.00 36 1004.0
20260504230052 20 98 0.0 4.8 0.00 0.00 0.00 35 1003.7
20260504224551 20 51 0.0 9.7 0.00 0.00 0.00 34 1003.5
20260504223102 20 258 0.0 8.0 0.00 0.00 0.00 34 1003.4
20260504221551 20 68 1.6 14.5 0.00 0.00 0.00 33 1003.5
20260504220049 20 27 1.6 8.0 0.00 0.00 0.00 32 1003.6
20260504214549 21 19 0.0 11.3 0.00 0.00 0.00 31 1003.6
20260504213048 21 160 0.0 11.3 0.00 0.00 0.00 31 1003.6
20260504211628 21 47 1.6 9.7 0.00 0.00 0.00 32 1003.5
20260504210051 21 328 1.6 11.3 0.00 0.00 0.00 30 1003.7
20260504204546 21 296 1.6 8.0 0.00 0.00 0.00 29 1003.6
20260504203045 21 250 3.2 9.7 0.00 0.00 0.00 30 1003.5
20260504201544 22 257 1.6 8.0 0.00 0.00 0.00 29 1003.5
20260504200044 22 224 3.2 6.4 0.00 0.00 0.00 28 1003.5
20260504194549 22 171 3.2 8.0 0.00 0.00 0.00 27 1003.7
20260504193042 22 221 3.2 8.0 0.00 0.00 0.00 28 1003.7
20260504191558 23 10 3.2 9.7 0.00 0.00 0.00 26 1003.8
20260504190045 22 319 3.2 12.9 0.00 0.00 0.00 25 1003.9
20260504184547 22 175 3.2 12.9 0.00 0.00 0.00 25 1004.1
20260504183038 22 150 3.2 9.7 0.00 0.00 0.00 26 1004.4
20260504181536 22 110 4.8 19.3 0.00 0.00 0.00 27 1004.3
20260504180034 21 345 4.8 19.3 0.00 0.00 0.00 28 1004.3
20260504174533 22 234 3.2 14.5 0.00 0.00 0.00 28 1004.4
20260504173029 21 184 6.4 17.7 0.00 0.00 0.00 29 1004.7
20260504171529 22 214 4.8 11.3 0.00 0.00 0.00 28 1004.6
20260504081542 5 231 0.0 1.6 0.00 0.00 0.00 75 1007.7
20260504050014 3 219 0.0 3.2 0.00 0.00 0.00 71 1007.7
20260504044512 3 229 1.6 3.2 0.00 0.00 0.00 70 1007.7
20260504043004 3 229 0.0 3.2 0.00 0.00 0.00 70 1007.6
20260504041559 3 225 0.0 1.6 0.00 0.00 0.00 70 1007.6
20260504040131 3 225 0.0 3.2 0.00 0.00 0.00 70 1007.5
20260504034601 3 225 0.0 3.2 0.00 0.00 0.00 70 1007.3
20260504033051 3 225 0.0 1.6 0.00 0.00 0.00 69 1007.3
20260504031556 4 225 0.0 1.6 0.00 0.00 0.00 68 1007.2
20260504030047 5 225 1.6 3.2 0.00 0.00 0.00 66 1007.2
20260504024548 5 225 0.0 1.6 0.00 0.00 0.00 64 1007.1
20260504023046 5 225 0.0 1.6 0.00 0.00 0.00 62 1007.1
20260504021548 6 225 0.0 1.6 0.00 0.00 0.00 60 1007.1
20260504020058 6 225 0.0 1.6 0.00 0.00 0.00 59 1007.0
20260504014546 6 225 0.0 1.6 0.00 0.00 0.00 59 1007.0